Regional Weather Roundup
Issued by NWS Lake Charles, LA

Home | Current Version | Previous Version | Text Only | Print | Product List | Glossary On
Versions: 1 2 3 4 5 6 7 8 9 10 11 12 13 14 15 16 17 18 19 20 21 22 23 24 25 26 27 28 29 30 31 32 33 34 35 36 37 38 39 40 41 42 43 44 45 46 47 48 49 50
062
ASUS44 KLCH 300610
RWRLCH
REGIONAL WEATHER ROUNDUP
NATIONAL WEATHER SERVICE LAKE CHARLES LA
100 AM CDT SAT APR 30 2016

Note: "fair" indicates few or no clouds below 12,000 feet with no
significant weather and/or obstructions to visibility.


ACROSS SOUTHEAST TEXAS

CITY           SKY/WX    TMP DP  RH WIND       PRES   REMARKS
BEAUMONT       CLOUDY    76  73  91 SE18G26   29.68F
BEAUMONT CITY  CLOUDY    77  72  82 S10       29.69F
ORANGE         CLOUDY    76  71  82 S13G18    29.73S
JASPER         CLOUDY    76  70  82 S13G20    29.69S
$$

ACROSS CENTRAL LOUISIANA

CITY           SKY/WX    TMP DP  RH WIND       PRES   REMARKS
LEESVILLE      CLOUDY    76  70  84 SE20G29   29.69F
FULLERTON      CLOUDY    76  69  79 VRB7      29.68F
ALEXANDRIA INT MOCLDY    75  70  84 SE15G22   29.70F
ESLER FIELD    CLOUDY    74  70  87 S9        29.74F
DERIDDER       MOCLDY    76  71  84 SE17      29.70F
OAKDALE        CLOUDY    76  70  82 SE10G18   29.72F
OPELOUSAS      CLOUDY    75  71  87 SE14G23   29.74F
$$

ACROSS SOUTHWEST AND SOUTH CENTRAL LOUISIANA

CITY           SKY/WX    TMP DP  RH WIND       PRES   REMARKS
SULPHUR        MOCLDY    77  73  85 SE16G24   29.72F
LAKE CHARLES   CLOUDY    77  72  84 S17G24    29.72F
CHENNAULT INT  CLOUDY    75  72  88 SE16      29.73F
CAMERON PHI    MOCLDY    77  73  88 SE18G26   29.75S
DEQUINCY       CLOUDY    76  71  86 SE14G21   29.71F
JENNINGS       MOCLDY    75  72  88 S14G20    29.74F
LAFAYETTE      CLOUDY    76  72  87 S8        29.76F
NEW IBERIA     CLOUDY    76  72  87 SE17G24   29.77F
ABBEVILLE      CLOUDY    76  73  90 SE15G25   29.77F
PATTERSON      NOT AVBL
SALT POINT       N/A     76  74  93 SE8G18    29.77F
$$

SELECTED SITES ACROSS THE REGION

CITY           SKY/WX    TMP DP  RH WIND       PRES   REMARKS
HOUSTON BUSH   CLOUDY    76  71  85 S12G22    29.65S
HOUSTON HOBBY  CLOUDY    76  73  91 S16G24    29.66S
GALVESTON      CLOUDY    76  75  97 S16G23    29.69S
COLLEGE STAT   TSTM      76  75  97 S7        29.61F FOG
CONROE         CLOUDY    78  70  76 S15       29.65S
HUNTSVILLE     MOCLDY    78  71  79 S14G20    29.62F
LUFKIN         CLOUDY    73  71  93 S9        29.64R
SHREVEPORT     TSTM      73  71  93 SE13      29.69R
MONROE         CLOUDY    76  69  79 VRB3      29.75F
NATCHEZ MS     CLOUDY    75  68  78 S12G24    29.78S
BATON ROUGE    CLOUDY    76  70  82 SE12      29.79F
N.O. INTL ARPT MOCLDY    76  72  87 SE10      29.82F
SLIDELL        CLOUDY    76  74  93 SE8       29.84F
$$

MARINE REPORTS

STATION/POSITION TIME  SKY/WX   TEMP    WIND        PRES    VSBY
                                AIR SEA DIR/SP/G
                 (UTC)          (F)     (DEG/KT/KT) (MB)    (MI)
BUOY 30 S HIGH I 0550            76 76  160/ 17/ 21 1004.8R
WVE H/P(F/S)=  6/ 8

SEA RIM ST PARK  0600            76     160/ 17/ 20 1006.0S
PORT ARTHUR      0500               75  160/ 11/ 17 1006.0F
SABINE PASS N    0500            77 78  160/ 16/ 26 1006.9F
TEXAS POINT      NOT AVBL
CALCASIEU PASS   0500            77 79  160/ 19/ 24 1005.6F
LK CHARLES BEACH 0500            77 72              1007.3F
MARSH ISLAND     0500            77     160/ 21/ 25   N/A
FRESH WATER LOCK 0500            76 80  130/ 16/ 21 1008.9F
AMERADA PASS     0500            76 75  130/  7/ 12 1009.4F
$$




USA.gov is the U.S. government's official web portal to all federal, state and local government web resources and services.